Coconut Island Observation History
Time Wind Speed Temp Pressure Rel. Hum Rain
03/06:30am - 0.0 kts 25.8°c 1012.9 hPa n/a 0.0mm
03/06:00am - 0.0 kts 25.8°c 1012.6 hPa n/a 0.0mm
03/05:30am - 0.0 kts 25.8°c 1012.7 hPa n/a 0.0mm
03/05:00am - 0.0 kts 25.6°c 1012.7 hPa n/a 0.0mm
03/04:30am - 0.0 kts 25.6°c 1012.7 hPa n/a 0.0mm
03/04:00am - 0.0 kts 25.5°c 1012.7 hPa n/a 0.0mm
03/03:30am - 0.0 kts 25.5°c 1012.8 hPa n/a 0.0mm
03/03:00am - 0.0 kts 25.5°c 1012.9 hPa n/a 0.0mm
03/02:30am - 0.0 kts 25.7°c 1013.3 hPa n/a 0.0mm
03/02:00am - 0.0 kts 25.7°c 1013.5 hPa n/a 0.0mm
03/01:30am - 0.0 kts 25.8°c 1013.8 hPa n/a 0.0mm
03/01:00am - 0.0 kts 25.9°c 1014.2 hPa n/a 0.0mm
03/12:30am - 0.0 kts 26.0°c 1014.5 hPa n/a 0.0mm
03/12:00am - 0.0 kts 26.1°c 1014.7 hPa n/a 0.0mm
Time Wind Speed Temp Pressure Rel. Hum Rain
02/11:30pm - 0.0 kts 26.0°c 1014.7 hPa n/a 0.0mm
02/11:00pm - 0.0 kts 26.1°c 1014.9 hPa n/a 0.0mm
02/10:30pm - 0.0 kts 26.1°c 1015.0 hPa n/a 0.0mm
02/10:00pm - 0.0 kts 26.2°c 1015.0 hPa n/a 0.0mm
02/09:30pm - 0.0 kts 26.1°c 1014.8 hPa n/a 0.0mm
02/09:00pm - 0.0 kts 26.1°c 1014.5 hPa n/a 0.0mm
02/08:30pm - 0.0 kts 26.0°c 1014.1 hPa n/a 0.0mm
02/08:00pm - 0.0 kts 26.1°c 1013.9 hPa n/a 0.0mm
02/07:30pm - 0.0 kts 26.2°c 1013.5 hPa n/a 0.0mm
02/07:00pm - 0.0 kts 26.3°c 1013.4 hPa n/a 0.0mm
02/06:30pm - 0.0 kts 26.4°c 1013.3 hPa n/a 0.0mm
02/06:00pm - 0.0 kts 26.4°c 1012.9 hPa n/a 0.0mm
02/05:30pm - 0.0 kts 27.0°c 1012.6 hPa n/a 0.0mm
02/05:00pm - 0.0 kts 27.4°c 1012.5 hPa n/a 0.0mm
02/04:30pm - 0.0 kts 28.4°c 1012.3 hPa n/a 0.0mm
02/04:00pm - 0.0 kts 28.7°c 1012.3 hPa n/a 0.0mm
02/03:30pm - 0.0 kts 29.3°c 1012.2 hPa n/a 0.0mm
02/03:00pm - 0.0 kts 29.6°c 1012.1 hPa n/a 0.0mm
02/02:30pm - 0.0 kts 29.8°c 1012.2 hPa n/a 0.0mm
02/02:00pm - 0.0 kts 29.9°c 1012.5 hPa n/a 0.0mm
02/01:30pm - 0.0 kts 29.9°c 1012.6 hPa n/a 0.0mm
02/01:00pm - 0.0 kts 30.1°c 1013.0 hPa n/a 0.0mm
02/12:30pm - 0.0 kts 29.8°c 1013.5 hPa n/a 0.0mm
02/12:00pm - 0.0 kts 29.4°c 1014.0 hPa n/a 0.0mm
02/11:30am - 0.0 kts 29.8°c 1014.4 hPa n/a 0.0mm
02/11:00am - 0.0 kts 29.9°c 1014.7 hPa n/a 0.0mm
02/10:30am - 0.0 kts 29.2°c 1014.9 hPa n/a 0.0mm
02/10:00am - 0.0 kts 29.3°c 1015.1 hPa n/a 0.0mm
02/09:30am - 0.0 kts 28.4°c 1015.1 hPa n/a 0.0mm
02/09:00am - 0.0 kts 28.8°c 1015.2 hPa n/a 0.0mm
02/08:30am - 0.0 kts 28.2°c 1015.0 hPa n/a 0.0mm
02/08:00am - 0.0 kts 27.6°c 1014.7 hPa n/a 0.0mm
02/07:30am - 0.0 kts 26.9°c 1014.6 hPa n/a 0.0mm
02/07:00am - 0.0 kts 25.5°c 1014.4 hPa n/a 0.0mm
02/06:30am - 0.0 kts 25.2°c 1014.1 hPa n/a 0.0mm
02/06:00am - 0.0 kts 25.2°c 1014.0 hPa n/a 0.0mm
02/05:30am - 0.0 kts 25.0°c 1013.7 hPa n/a 0.0mm
02/05:00am - 0.0 kts 25.1°c 1013.6 hPa n/a 0.0mm
02/04:30am - 0.0 kts 25.2°c 1013.5 hPa n/a 0.0mm
02/04:00am - 0.0 kts 25.1°c 1013.4 hPa n/a 0.0mm
02/03:30am - 0.0 kts 25.3°c 1013.5 hPa n/a 0.0mm
02/03:00am - 0.0 kts 25.3°c 1013.8 hPa n/a 0.0mm
02/02:30am - 0.0 kts 25.4°c 1013.8 hPa n/a 0.0mm
02/02:00am - 0.0 kts 25.7°c 1014.0 hPa n/a 0.0mm
02/01:30am - 0.0 kts 25.8°c 1014.2 hPa n/a 0.0mm
02/01:00am - 0.0 kts 25.8°c 1014.4 hPa n/a 0.0mm
02/12:30am - 0.0 kts 25.9°c 1014.6 hPa n/a 0.0mm
02/12:00am - 0.0 kts 26.1°c 1014.6 hPa n/a 0.0mm
Time Wind Speed Temp Pressure Rel. Hum Rain
01/11:30pm - 0.0 kts 26.4°c 1014.9 hPa n/a 0.0mm
01/11:00pm - 0.0 kts 26.5°c 1015.0 hPa n/a 0.0mm
01/10:30pm - 0.0 kts 26.5°c 1014.9 hPa n/a 0.0mm
01/10:00pm - 0.0 kts 26.5°c 1014.8 hPa n/a 0.0mm
01/09:30pm - 0.0 kts 26.4°c 1014.7 hPa n/a 0.0mm
01/09:00pm - 0.0 kts 26.5°c 1014.4 hPa n/a 0.0mm
01/08:30pm - 0.0 kts 26.5°c 1014.2 hPa n/a 0.0mm
01/08:00pm - 0.0 kts 26.7°c 1013.9 hPa n/a 0.0mm
01/07:30pm - 0.0 kts 26.7°c 1013.5 hPa n/a 0.0mm
01/07:00pm - 0.0 kts 26.8°c 1013.1 hPa n/a 0.0mm
01/06:30pm - 0.0 kts 26.8°c 1012.7 hPa n/a 0.0mm
01/06:00pm - 0.0 kts 27.2°c 1012.4 hPa n/a 0.0mm
01/05:30pm - 0.0 kts 27.5°c 1012.3 hPa n/a 0.0mm
01/05:00pm - 0.0 kts 28.1°c 1012.0 hPa n/a 0.0mm
01/04:30pm - 0.0 kts 29.0°c 1011.9 hPa n/a 0.0mm
01/04:00pm - 0.0 kts 29.4°c 1011.9 hPa n/a 0.0mm
01/03:30pm - 0.0 kts 30.4°c 1012.0 hPa n/a 0.0mm
01/03:00pm - 0.0 kts 30.5°c 1012.2 hPa n/a 0.0mm
01/02:30pm - 0.0 kts 31.2°c 1012.6 hPa n/a 0.0mm
01/02:00pm - 0.0 kts 31.1°c 1012.8 hPa n/a 0.0mm
01/01:30pm - 0.0 kts 31.6°c 1013.1 hPa n/a 0.0mm
01/01:00pm - 0.0 kts 31.4°c 1013.5 hPa n/a 0.0mm
01/12:30pm - 0.0 kts 30.6°c 1014.0 hPa n/a 0.0mm
01/12:00pm - 0.0 kts 30.8°c 1014.1 hPa n/a 0.0mm
01/11:30am - 0.0 kts 31.4°c 1014.2 hPa n/a 0.0mm
01/11:00am - 0.0 kts 30.6°c 1014.2 hPa n/a 0.0mm
01/10:30am - 0.0 kts 29.9°c 1014.4 hPa n/a 0.0mm
01/10:00am - 0.0 kts 29.7°c 1014.6 hPa n/a 0.0mm
01/09:30am - 0.0 kts 29.2°c 1014.5 hPa n/a 0.0mm
01/09:00am - 0.0 kts 28.0°c 1014.4 hPa n/a 0.2mm
01/08:30am - 0.0 kts 27.7°c 1014.0 hPa n/a 0.2mm
01/08:00am - 0.0 kts 26.9°c 1013.7 hPa n/a 0.2mm
01/07:30am - 0.0 kts 26.7°c 1013.5 hPa n/a 0.2mm
01/07:00am - 0.0 kts 26.5°c 1013.2 hPa n/a 0.2mm
01/06:30am - 0.0 kts 26.4°c 1012.9 hPa n/a 0.2mm
01/06:00am - 0.0 kts 26.2°c 1012.8 hPa n/a 0.2mm
01/05:30am - 0.0 kts 26.2°c 1012.6 hPa n/a 0.2mm
01/05:00am - 0.0 kts 26.3°c 1012.3 hPa n/a 0.2mm
01/04:30am - 0.0 kts 26.3°c 1012.2 hPa n/a 0.2mm
01/04:00am - 0.0 kts 26.4°c 1012.1 hPa n/a 0.2mm
01/03:30am - 0.0 kts 26.5°c 1012.1 hPa n/a 0.2mm
01/03:00am - 0.0 kts 26.4°c 1012.3 hPa n/a 0.2mm
01/02:30am - 0.0 kts 26.4°c 1012.5 hPa n/a 0.2mm
01/02:00am - 0.0 kts 26.5°c 1012.6 hPa n/a 0.2mm
01/01:30am - 0.0 kts 26.5°c 1012.9 hPa n/a 0.2mm
01/01:00am - 0.0 kts 26.5°c 1013.1 hPa n/a 0.2mm
01/12:30am - 0.0 kts 26.6°c 1013.2 hPa n/a 0.2mm
01/12:00am - 0.0 kts 26.7°c 1013.6 hPa n/a 0.2mm